27-07-2023, 00:00:00,    180,    0.0,   13.3,   0.00,   0.00, 1002.2,    0.2, -999.0
27-07-2023, 00:00:10,    180,    0.0,   13.2,   0.00,   0.00, 1002.2,    0.3, -999.0
27-07-2023, 00:00:20,    180,    0.0,   13.3,   0.00,   0.00, 1002.2,    0.2, -999.0
27-07-2023, 00:00:30,    180,    0.0,   13.3,   0.00,   0.00, 1002.2,    0.3, -999.0
27-07-2023, 00:00:40,    180,    0.0,   13.3,   0.00,   0.00, 1002.2,    0.2, -999.0
27-07-2023, 00:00:50,    180,    0.0,   13.3,   0.00,   0.00, 1002.2,    0.1, -999.0
27-07-2023, 00:00:59,    181,    0.0,   13.3,   0.00,   0.00, 1002.2,    0.2, -999.0
27-07-2023, 00:01:10,    188,    1.0,   13.3,   0.00,   0.00, 1002.3,    0.3, -999.0
27-07-2023, 00:01:20,    195,    1.4,   13.3,   0.00,   0.00, 1002.4,    0.3, -999.0
27-07-2023, 00:01:29,    198,    0.9,   13.3,   0.00,   0.00, 1002.3,    0.3, -999.0
27-07-2023, 00:01:39,    198,    0.2,   13.3,   0.00,   0.00, 1002.3,    0.1, -999.0
27-07-2023, 00:01:50,    198,    0.0,   13.2,   0.00,   0.00, 1002.2,    0.3, -999.0
27-07-2023, 00:02:00,    196,    0.0,   13.3,   0.00,   0.00, 1002.2,    0.4, -999.0
27-07-2023, 00:02:09,    196,    0.6,   13.3,   0.00,   0.00, 1002.3,    0.3, -999.0
27-07-2023, 00:02:19,    233,    0.9,   13.2,   0.00,   0.00, 1002.3,    0.3, -999.0
27-07-2023, 00:02:30,    231,    0.1,   13.3,   0.00,   0.00, 1002.2,    0.3, -999.0
27-07-2023, 00:02:39,    230,    0.2,   13.3,   0.00,   0.00, 1002.3,    0.3, -999.0
27-07-2023, 00:02:49,    214,    2.8,   13.3,   0.00,   0.00, 1002.3,    0.2, -999.0
27-07-2023, 00:02:59,    193,    1.2,   13.3,   0.00,   0.00, 1002.3,    0.3, -999.0
27-07-2023, 00:03:09,    210,    1.2,   13.4,   0.00,   0.00, 1002.3,    0.4, -999.0
27-07-2023, 00:03:19,    233,    0.9,   13.3,   0.00,   0.00, 1002.3,    0.3, -999.0
27-07-2023, 00:03:29,    233,    1.3,   13.3,   0.00,   0.00, 1002.3,    0.2, -999.0
27-07-2023, 00:03:39,    181,    0.2,   13.3,   0.00,   0.00, 1002.3,    0.3, -999.0
27-07-2023, 00:03:49,    181,    0.2,   13.4,   0.00,   0.00, 1002.3,    0.1, -999.0
27-07-2023, 00:03:59,    182,    0.3,   13.3,   0.00,   0.00, 1002.3,    0.4, -999.0
27-07-2023, 00:04:09,    186,    0.2,   13.3,   0.00,   0.00, 1002.2,    0.1, -999.0
27-07-2023, 00:04:19,    210,    1.0,   13.4,   0.00,   0.00, 1002.3,    0.4, -999.0
27-07-2023, 00:04:29,    232,    1.1,   13.3,   0.00,   0.01, 1002.3,    0.3, -999.0
27-07-2023, 00:04:39,    222,    0.2,   13.3,   0.00,   0.00, 1002.3,    0.2, -999.0
27-07-2023, 00:04:49,    219,    0.2,   13.3,   0.00,   0.00, 1002.2,    0.3, -999.0
27-07-2023, 00:04:59,    211,    0.5,   13.3,   0.00,   0.00, 1002.2,    0.2, -999.0
27-07-2023, 00:05:09,    211,    0.0,   13.2,   0.00,   0.01, 1002.1,    0.1, -999.0
27-07-2023, 00:05:19,    211,    0.0,   13.3,   0.00,   0.00, 1002.1,    0.2, -999.0
27-07-2023, 00:05:29,    184,    0.4,   13.3,   0.00,   0.00, 1002.2,    0.2, -999.0
27-07-2023, 00:05:39,    185,    0.6,   13.4,   0.00,   0.01, 1002.3,    0.2, -999.0
27-07-2023, 00:05:49,    220,    0.3,   13.3,   0.00,   0.00, 1002.2,    0.3, -999.0
27-07-2023, 00:05:59,    228,    2.0,   13.3,   0.00,   0.00, 1002.3,    0.1, -999.0
27-07-2023, 00:06:09,    196,    1.3,   13.3,   0.00,   0.01, 1002.2,    0.3, -999.0
27-07-2023, 00:06:19,    226,    2.2,   13.3,   0.00,   0.00, 1002.3,    0.2, -999.0
27-07-2023, 00:06:29,    214,    1.5,   13.3,   0.00,   0.00, 1002.2,    0.2, -999.0
27-07-2023, 00:06:39,    193,    2.6,   13.3,   0.00,   0.01, 1002.2,    0.2, -999.0
27-07-2023, 00:06:49,    191,    0.5,   13.3,   0.00,   0.00, 1002.2,    0.4, -999.0
27-07-2023, 00:06:59,    197,    0.7,   13.3,   0.00,   0.00, 1002.2,    0.4, -999.0
27-07-2023, 00:07:09,    198,    0.2,   13.3,   0.00,   0.01, 1002.2,    0.3, -999.0
27-07-2023, 00:07:19,    199,    1.4,   13.3,   0.00,   0.00, 1002.2,    0.5, -999.0
27-07-2023, 00:07:29,    197,    1.7,   13.3,   0.00,   0.01, 1002.2,    0.2, -999.0
27-07-2023, 00:07:39,    197,    0.5,   13.3,   0.00,   0.00, 1002.2,    0.4, -999.0
27-07-2023, 00:07:49,    195,    0.0,   13.3,   0.00,   0.01, 1002.1,    0.3, -999.0
27-07-2023, 00:07:59,    198,    0.1,   13.2,   0.00,   0.00, 1002.1,    0.1, -999.0
27-07-2023, 00:08:09,    199,    0.8,   13.4,   0.00,   0.01, 1002.2,    0.1, -999.0
27-07-2023, 00:08:19,    218,    1.1,   13.3,   0.00,   0.00, 1002.2,    0.2, -999.0
27-07-2023, 00:08:29,    204,    0.3,   13.4,   0.00,   0.00, 1002.2,    0.3, -999.0
27-07-2023, 00:08:38,    204,    0.0,   13.3,   0.00,   0.01, 1002.1,    0.3, -999.0
27-07-2023, 00:08:49,    140,    0.5,   13.3,   0.00,   0.00, 1002.2,    0.2, -999.0
27-07-2023, 00:08:59,    140,    0.1,   13.3,   0.00,   0.00, 1002.1,    0.3, -999.0
27-07-2023, 00:09:08,    191,    0.7,   13.3,   0.00,   0.01, 1002.1,    0.2, -999.0
27-07-2023, 00:09:18,    192,    0.9,   13.3,   0.00,   0.00, 1002.2,    0.4, -999.0
27-07-2023, 00:09:29,    197,    0.2,   13.3,   0.00,   0.00, 1002.1,    0.1, -999.0
27-07-2023, 00:09:39,    200,    1.1,   13.3,   0.00,   0.01, 1002.2,    0.3, -999.0
27-07-2023, 00:09:48,    200,    0.2,   13.2,   0.00,   0.00, 1002.1,    0.1, -999.0
27-07-2023, 00:09:58,    194,    0.7,   13.3,   0.00,   0.00, 1002.2,    0.3, -999.0
27-07-2023, 00:10:09,    195,    0.0,   13.3,   0.00,   0.01, 1002.1,    0.4, -999.0
27-07-2023, 00:10:18,    195,    0.0,   13.2,   0.00,   0.00, 1002.1,    0.2, -999.0
27-07-2023, 00:10:28,    194,    0.0,   13.3,   0.00,   0.00, 1002.1,    0.2, -999.0
27-07-2023, 00:10:39,    195,    0.0,   13.3,   0.00,   0.00, 1002.1,    0.3, -999.0
27-07-2023, 00:10:48,    165,    0.4,   13.3,   0.00,   0.00, 1002.1,    0.1, -999.0
27-07-2023, 00:10:58,    219,    2.2,   13.4,   0.00,   0.01, 1002.1,    0.4, -999.0
27-07-2023, 00:11:08,    198,    2.3,   13.3,   0.00,   0.00, 1002.1,    0.2, -999.0
27-07-2023, 00:11:18,    219,    0.8,   13.3,   0.00,   0.00, 1002.2,    0.3, -999.0
27-07-2023, 00:11:28,    253,    0.7,   13.3,   0.00,   0.01, 1002.1,    0.1, -999.0
27-07-2023, 00:11:38,    236,    0.4,   13.3,   0.00,   0.00, 1002.1,    0.3, -999.0
27-07-2023, 00:11:48,    200,    1.0,   13.3,   0.00,   0.00, 1002.1,    0.2, -999.0
27-07-2023, 00:11:58,    217,    1.3,   13.4,   0.00,   0.00, 1002.1,    0.5, -999.0
27-07-2023, 00:12:08,    209,    1.2,   13.3,   0.00,   0.00, 1002.2,    0.2, -999.0
27-07-2023, 00:12:18,    212,    2.2,   13.3,   0.00,   0.00, 1002.2,    0.2, -999.0
27-07-2023, 00:12:28,    220,    2.8,   13.3,   0.00,   0.00, 1002.2,    0.2, -999.0
27-07-2023, 00:12:38,    165,    2.1,   13.1,   0.00,   0.00, 1002.1,    0.3, -999.0
27-07-2023, 00:12:48,    192,    0.9,   13.3,   0.00,   0.00, 1002.2,    0.3, -999.0
27-07-2023, 00:12:58,    192,    0.1,   13.3,   0.00,   0.00, 1002.1,    0.2, -999.0
27-07-2023, 00:13:08,    197,    0.5,   13.3,   0.00,   0.00, 1002.1,    0.3, -999.0
27-07-2023, 00:13:18,    206,    0.8,   13.4,   0.00,   0.00, 1002.1,    0.2, -999.0
27-07-2023, 00:13:28,    205,    0.0,   13.3,   0.00,   0.01, 1002.0,    0.3, -999.0
27-07-2023, 00:13:38,    163,    1.3,   13.3,   0.00,   0.00, 1002.1,    0.1, -999.0
27-07-2023, 00:13:48,    228,    1.0,   13.3,   0.00,   0.00, 1002.1,    0.4, -999.0
27-07-2023, 00:13:58,    208,    2.3,   13.3,   0.00,   0.00, 1002.1,    0.3, -999.0
27-07-2023, 00:14:08,    236,    2.0,   13.4,   0.00,   0.00, 1002.1,    0.4, -999.0
27-07-2023, 00:14:18,    230,    0.4,   13.4,   0.00,   0.00, 1002.1,    0.3, -999.0
27-07-2023, 00:14:28,    191,    1.7,   13.4,   0.00,   0.00, 1002.1,    0.3, -999.0
27-07-2023, 00:14:38,    194,    0.6,   13.3,   0.00,   0.00, 1002.1,    0.2, -999.0
27-07-2023, 00:14:48,    234,    1.3,   13.3,   0.00,   0.00, 1002.1,    0.4, -999.0
27-07-2023, 00:14:58,    201,    2.7,   13.4,   0.00,   0.00, 1002.2,    0.2, -999.0
27-07-2023, 00:15:08,    200,    0.8,   13.3,   0.00,   0.00, 1002.1,    0.1, -999.0
27-07-2023, 00:15:18,    177,    1.0,   13.3,   0.00,   0.01, 1002.1,    0.4, -999.0
27-07-2023, 00:15:28,    177,    0.2,   13.2,   0.00,   0.00, 1002.1,    0.1, -999.0
27-07-2023, 00:15:38,    178,    0.0,   13.3,   0.00,   0.00, 1002.0,    0.0, -999.0
27-07-2023, 00:15:48,    191,    0.8,   13.3,   0.00,   0.00, 1002.1,    0.2, -999.0
27-07-2023, 00:15:58,    196,    0.8,   13.3,   0.00,   0.00, 1002.1,    0.2, -999.0
27-07-2023, 00:16:07,    197,    0.0,   13.1,   0.00,   0.00, 1002.0,    0.3, -999.0
27-07-2023, 00:16:18,    198,    0.2,   13.3,   0.00,   0.01, 1002.1,    0.3, -999.0
27-07-2023, 00:16:28,    198,    0.0,   13.3,   0.00,   0.00, 1002.0,    0.2, -999.0
27-07-2023, 00:16:37,    220,    0.5,   13.3,   0.00,   0.00, 1002.1,    0.4, -999.0
27-07-2023, 00:16:47,    214,    0.9,   13.4,   0.00,   0.00, 1002.2,    0.3, -999.0
27-07-2023, 00:16:58,    208,    0.3,   13.3,   0.00,   0.00, 1002.1,    0.5, -999.0
27-07-2023, 00:17:08,    206,    0.3,   13.2,   0.00,   0.00, 1002.1,    0.2, -999.0
27-07-2023, 00:17:17,    234,    0.6,   13.3,   0.00,   0.00, 1002.1,    0.1, -999.0
27-07-2023, 00:17:27,    224,    0.4,   13.4,   0.00,   0.01, 1002.1,    0.1, -999.0
27-07-2023, 00:17:38,    205,    0.5,   13.3,   0.00,   0.00, 1002.1,    0.5, -999.0
27-07-2023, 00:17:47,    169,    0.5,   13.5,   0.00,   0.00, 1002.1,    0.4, -999.0
27-07-2023, 00:17:57,    169,    1.1,   13.3,   0.00,   0.00, 1002.1,    0.2, -999.0
27-07-2023, 00:18:07,    169,    0.0,   13.3,   0.00,   0.01, 1002.0,    0.2, -999.0
27-07-2023, 00:18:17,    169,    0.0,   13.3,   0.00,   0.00, 1002.0,    0.2, -999.0
27-07-2023, 00:18:27,    169,    0.0,   13.3,   0.00,   0.00, 1002.0,    0.4, -999.0
27-07-2023, 00:18:37,    169,    0.0,   13.2,   0.00,   0.00, 1002.0,    0.4, -999.0
27-07-2023, 00:18:47,    169,    0.0,   13.3,   0.00,   0.00, 1002.0,    0.3, -999.0
27-07-2023, 00:18:57,    204,    0.9,   13.3,   0.00,   0.01, 1002.1,    0.1, -999.0
27-07-2023, 00:19:07,    215,    2.5,   13.4,   0.00,   0.00, 1002.1,    0.0, -999.0
27-07-2023, 00:19:17,    185,    1.5,   13.4,   0.00,   0.00, 1002.1,    0.2, -999.0
27-07-2023, 00:19:27,    205,    2.2,   13.4,   0.00,   0.00, 1002.1,    0.3, -999.0
27-07-2023, 00:19:37,    214,    2.4,   13.3,   0.00,   0.01, 1002.1,    0.2, -999.0
27-07-2023, 00:19:47,    214,    0.9,   13.4,   0.00,   0.00, 1002.1,    0.2, -999.0
27-07-2023, 00:19:57,    213,    0.2,   13.3,   0.00,   0.00, 1002.1,    0.2, -999.0
27-07-2023, 00:20:07,    138,    0.6,   13.3,   0.00,   0.00, 1002.1,    0.2, -999.0
27-07-2023, 00:20:17,    202,    0.5,   13.4,   0.00,   0.01, 1002.1,    0.2, -999.0
27-07-2023, 00:20:27,    199,    2.1,   13.3,   0.00,   0.00, 1002.1,    0.4, -999.0
27-07-2023, 00:20:37,    210,    2.4,   13.3,   0.00,   0.01, 1002.1,    0.2, -999.0
27-07-2023, 00:20:47,    188,    1.4,   13.4,   0.00,   0.00, 1002.1,    0.2, -999.0
27-07-2023, 00:20:57,    186,    0.9,   13.4,   0.00,   0.01, 1002.1,    0.4, -999.0
27-07-2023, 00:21:07,    186,    0.3,   13.3,   0.00,   0.00, 1002.0,    0.1, -999.0
27-07-2023, 00:21:17,    192,    0.0,   13.3,   0.00,   0.01, 1002.0,    0.1, -999.0
27-07-2023, 00:21:27,    188,    0.0,   13.2,   0.00,   0.00, 1002.0,    0.3, -999.0
27-07-2023, 00:21:37,    188,    0.1,   13.2,   0.00,   0.01, 1002.0,    0.1, -999.0
27-07-2023, 00:21:47,    191,    0.0,   13.2,   0.00,   0.00, 1002.0,    0.3, -999.0
27-07-2023, 00:21:57,    194,    0.5,   13.3,   0.00,   0.01, 1002.0,    0.1, -999.0
27-07-2023, 00:22:07,    163,    1.0,   13.4,   0.00,   0.01, 1002.1,    0.2, -999.0
27-07-2023, 00:22:17,    185,    1.3,   13.4,   0.00,   0.01, 1002.1,    0.2, -999.0
27-07-2023, 00:22:27,    231,    2.7,   13.4,   0.00,   0.01, 1002.0,    0.1, -999.0
27-07-2023, 00:22:37,    193,    1.3,   13.3,   0.00,   0.01, 1002.0,    0.5, -999.0
27-07-2023, 00:22:47,    212,    0.6,   13.3,   0.00,   0.02, 1002.0,    0.0, -999.0
27-07-2023, 00:22:57,    198,    1.3,   13.3,   0.00,   0.01, 1002.0,    0.5, -999.0
27-07-2023, 00:23:06,    192,    2.0,   13.4,   0.00,   0.01, 1002.0,    0.1, -999.0
27-07-2023, 00:23:17,    182,    0.5,   13.4,   0.00,   0.02, 1002.0,    0.0, -999.0
27-07-2023, 00:23:27,    185,    1.2,   13.5,   0.00,   0.01, 1002.1,    0.4, -999.0
27-07-2023, 00:23:37,    203,    1.9,   13.4,   0.00,   0.00, 1002.0,    0.2, -999.0
27-07-2023, 00:23:46,    196,    0.7,   13.3,   0.00,   0.01, 1002.0,    0.3, -999.0
27-07-2023, 00:23:57,    207,    0.7,   13.4,   0.00,   0.01, 1002.0,    0.2, -999.0
27-07-2023, 00:24:07,    195,    2.6,   13.4,   0.00,   0.00, 1002.0,    0.3, -999.0
27-07-2023, 00:24:16,    212,    2.1,   13.4,   0.00,   0.01, 1002.0,    0.0, -999.0
27-07-2023, 00:24:26,    177,    2.2,   13.4,   0.00,   0.01, 1002.0,    0.2, -999.0
27-07-2023, 00:24:37,    204,    2.5,   13.4,   0.00,   0.01, 1002.0,    0.0, -999.0
27-07-2023, 00:24:46,    207,    2.5,   13.4,   0.00,   0.00, 1002.0,    0.6, -999.0
27-07-2023, 00:24:56,    212,    1.4,   13.3,   0.00,   0.01, 1002.0,    0.2, -999.0
27-07-2023, 00:25:07,    261,    0.8,   13.4,   0.00,   0.00, 1002.0,    0.5, -999.0
27-07-2023, 00:25:16,    200,    0.8,   13.4,   0.00,   0.01, 1002.0,    0.3, -999.0
27-07-2023, 00:25:26,    200,    0.5,   13.4,   0.00,   0.00, 1002.0,    0.4, -999.0
27-07-2023, 00:25:36,    200,    0.1,   13.3,   0.00,   0.00, 1002.0,    0.2, -999.0
27-07-2023, 00:25:46,    199,    0.4,   13.4,   0.00,   0.00, 1002.0,    0.2, -999.0
27-07-2023, 00:25:56,    200,    0.5,   13.4,   0.00,   0.00, 1002.0,    0.1, -999.0
27-07-2023, 00:26:06,    133,    1.7,   13.4,   0.00,   0.00, 1002.0,    0.4, -999.0
27-07-2023, 00:26:16,    248,    0.5,   13.3,   0.00,   0.01, 1002.0,    0.4, -999.0
27-07-2023, 00:26:26,    219,    1.7,   13.5,   0.00,   0.00, 1001.9,    0.0, -999.0
27-07-2023, 00:26:36,    186,    1.0,   13.5,   0.00,   0.00, 1002.0,    0.1, -999.0
27-07-2023, 00:26:46,    198,    1.1,   13.4,   0.00,   0.00, 1002.0,    0.3, -999.0
27-07-2023, 00:26:56,    204,    0.9,   13.4,   0.00,   0.00, 1002.0,    0.1, -999.0
27-07-2023, 00:27:06,    204,    0.5,   13.4,   0.00,   0.00, 1002.0,    0.3, -999.0
27-07-2023, 00:27:16,    203,    0.2,   13.4,   0.00,   0.00, 1001.9,    0.3, -999.0
27-07-2023, 00:27:26,    204,    0.0,   13.2,   0.00,   0.00, 1001.8,    0.3, -999.0
27-07-2023, 00:27:36,    205,    0.0,   13.3,   0.00,   0.00, 1001.9,    0.1, -999.0
27-07-2023, 00:27:46,    207,    0.8,   13.4,   0.00,   0.00, 1002.0,    0.0, -999.0
27-07-2023, 00:27:56,    205,    3.5,   13.3,   0.00,   0.00, 1002.0,    0.5, -999.0
27-07-2023, 00:28:06,    214,    2.5,   13.4,   0.00,   0.01, 1002.0,    0.5, -999.0
27-07-2023, 00:28:16,    195,    3.0,   13.3,   0.00,   0.00, 1002.0,    0.2, -999.0
27-07-2023, 00:28:26,    206,    2.7,   13.4,   0.00,   0.00, 1002.0,    0.5, -999.0
27-07-2023, 00:28:36,    144,    3.2,   13.5,   0.00,   0.00, 1002.0,    0.4, -999.0
27-07-2023, 00:28:46,    199,    1.3,   13.5,   0.00,   0.00, 1002.0,    0.4, -999.0
27-07-2023, 00:28:56,    202,    0.6,   13.5,   0.00,   0.00, 1001.9,    0.3, -999.0
27-07-2023, 00:29:06,    201,    0.6,   13.4,   0.00,   0.00, 1001.9,    0.2, -999.0
27-07-2023, 00:29:16,    214,    1.0,   13.4,   0.00,   0.00, 1001.9,    0.2, -999.0
27-07-2023, 00:29:26,    211,    3.2,   13.3,   0.00,   0.00, 1002.0,    0.3, -999.0
27-07-2023, 00:29:36,    199,    1.7,   13.5,   0.00,   0.00, 1002.0,    0.2, -999.0
27-07-2023, 00:29:46,    217,    1.9,   13.5,   0.00,   0.00, 1002.0,    0.2, -999.0
27-07-2023, 00:29:56,    204,    1.4,   13.4,   0.00,   0.01, 1002.0,    0.4, -999.0
27-07-2023, 00:30:06,    203,    0.4,   13.5,   0.00,   0.00, 1001.9,    0.3, -999.0
27-07-2023, 00:30:16,    223,    2.4,   13.5,   0.00,   0.00, 1001.9,    0.3, -999.0
27-07-2023, 00:30:26,    222,    0.3,   13.5,   0.00,   0.00, 1001.9,    0.2, -999.0
27-07-2023, 00:30:36,    238,    0.3,   13.4,   0.00,   0.00, 1001.9,    0.2, -999.0
27-07-2023, 00:30:46,    197,    0.7,   13.5,   0.00,   0.00, 1002.0,    0.3, -999.0
27-07-2023, 00:30:56,    211,    1.1,   13.4,   0.00,   0.00, 1002.0,    0.2, -999.0
27-07-2023, 00:31:06,    201,    0.6,   13.5,   0.00,   0.00, 1002.0,    0.2, -999.0
27-07-2023, 00:31:15,    200,    0.0,   13.4,   0.00,   0.00, 1001.9,    0.2, -999.0
27-07-2023, 00:31:26,    211,    0.9,   13.4,   0.00,   0.00, 1002.0,    0.3, -999.0
27-07-2023, 00:31:36,    218,    1.1,   13.5,   0.00,   0.00, 1002.0,    0.2, -999.0
27-07-2023, 00:31:45,    203,    2.8,   13.5,   0.00,   0.00, 1002.0,    0.3, -999.0
27-07-2023, 00:31:55,    250,    4.4,   13.5,   0.00,   0.01, 1002.0,    0.1, -999.0
27-07-2023, 00:32:06,    224,    1.5,   13.5,   0.00,   0.00, 1002.0,    0.1, -999.0
27-07-2023, 00:32:16,    226,    0.2,   13.5,   0.00,   0.00, 1001.9,    0.2, -999.0
27-07-2023, 00:32:25,    225,    0.1,   13.4,   0.00,   0.00, 1001.9,    0.6, -999.0
27-07-2023, 00:32:35,    204,    0.8,   13.5,   0.00,   0.00, 1002.0,    0.1, -999.0
27-07-2023, 00:32:46,    215,    0.4,   13.5,   0.00,   0.00, 1002.0,    0.2, -999.0
27-07-2023, 00:32:55,    212,    0.0,   13.4,   0.00,   0.00, 1001.8,    0.1, -999.0
27-07-2023, 00:33:05,    192,    0.8,   13.5,   0.00,   0.00, 1002.0,    0.2, -999.0
27-07-2023, 00:33:15,    148,    1.3,   13.5,   0.00,   0.00, 1002.0,    0.3, -999.0
27-07-2023, 00:33:25,    215,    0.5,   13.4,   0.00,   0.00, 1002.0,    0.4, -999.0
27-07-2023, 00:33:35,    244,    1.1,   13.5,   0.00,   0.00, 1002.0,    0.3, -999.0
27-07-2023, 00:33:45,    241,    1.0,   13.5,   0.00,   0.00, 1002.0,    0.3, -999.0
27-07-2023, 00:33:55,    223,    0.5,   13.5,   0.00,   0.00, 1001.9,    0.1, -999.0
27-07-2023, 00:34:05,    204,    1.1,   13.5,   0.00,   0.00, 1002.0,    0.2, -999.0
27-07-2023, 00:34:15,    210,    1.2,   13.5,   0.00,   0.00, 1002.0,    0.5, -999.0
27-07-2023, 00:34:25,    209,    0.2,   13.4,   0.00,   0.00, 1001.9,    0.2, -999.0
27-07-2023, 00:34:35,    184,    0.5,   13.4,   0.00,   0.00, 1001.9,    0.2, -999.0
27-07-2023, 00:34:45,    193,    1.2,   13.5,   0.00,   0.00, 1002.0,    0.3, -999.0
27-07-2023, 00:34:55,    230,    1.7,   13.5,   0.00,   0.00, 1002.0,    0.3, -999.0
27-07-2023, 00:35:05,    220,    1.0,   13.5,   0.00,   0.00, 1002.0,    0.3, -999.0
27-07-2023, 00:35:15,    218,    1.4,   13.5,   0.00,   0.00, 1002.0,    0.4, -999.0
27-07-2023, 00:35:25,    205,    0.1,   13.4,   0.00,   0.00, 1001.9,    0.2, -999.0
27-07-2023, 00:35:35,    209,    0.3,   13.4,   0.00,   0.00, 1001.9,    0.3, -999.0
27-07-2023, 00:35:45,    205,    1.5,   13.5,   0.00,   0.00, 1002.0,    0.2, -999.0
27-07-2023, 00:35:55,    206,    1.5,   13.5,   0.00,   0.00, 1002.0,    0.4, -999.0
27-07-2023, 00:36:05,    200,    0.9,   13.5,   0.00,   0.00, 1002.0,    0.3, -999.0
27-07-2023, 00:36:15,    227,    1.6,   13.4,   0.00,   0.00, 1002.0,    0.2, -999.0
27-07-2023, 00:36:25,    224,    1.6,   13.5,   0.00,   0.00, 1002.0,    0.3, -999.0
27-07-2023, 00:36:35,    190,    1.0,   13.4,   0.00,   0.00, 1002.0,    0.2, -999.0
27-07-2023, 00:36:45,    206,    0.9,   13.5,   0.00,   0.00, 1001.9,    0.2, -999.0
27-07-2023, 00:36:55,    205,    0.7,   13.5,   0.00,   0.00, 1002.0,    0.3, -999.0
27-07-2023, 00:37:05,    205,    0.4,   13.4,   0.00,   0.00, 1001.9,    0.1, -999.0
27-07-2023, 00:37:15,    219,    2.8,   13.5,   0.00,   0.00, 1002.0,    0.4, -999.0
27-07-2023, 00:37:25,    216,    1.4,   13.5,   0.00,   0.00, 1001.9,    0.3, -999.0
27-07-2023, 00:37:35,    217,    0.3,   13.4,   0.00,   0.00, 1002.0,    0.2, -999.0
27-07-2023, 00:37:45,    217,    0.0,   13.4,   0.00,   0.00, 1001.8,    0.2, -999.0
27-07-2023, 00:37:55,    214,    0.0,   13.4,   0.00,   0.00, 1001.8,    0.3, -999.0
27-07-2023, 00:38:05,    208,    1.9,   13.4,   0.00,   0.00, 1002.0,    0.2, -999.0
27-07-2023, 00:38:14,    234,    1.9,   13.5,   0.00,   0.00, 1002.0,    0.2, -999.0
27-07-2023, 00:38:25,    204,    2.5,   13.5,   0.00,   0.00, 1002.0,    0.2, -999.0
27-07-2023, 00:38:35,    229,    1.0,   13.5,   0.00,   0.00, 1001.9,    0.3, -999.0
27-07-2023, 00:38:44,    201,    1.5,   13.5,   0.00,   0.00, 1002.0,    0.4, -999.0
27-07-2023, 00:38:55,    206,    1.7,   13.3,   0.00,   0.00, 1001.9,    0.4, -999.0
27-07-2023, 00:39:05,    248,    2.0,   13.5,   0.00,   0.00, 1002.0,    0.3, -999.0
27-07-2023, 00:39:15,    187,    0.5,   13.4,   0.00,   0.00, 1001.9,    0.2, -999.0
27-07-2023, 00:39:24,    188,    0.7,   13.4,   0.00,   0.00, 1001.9,    0.4, -999.0
27-07-2023, 00:39:35,    187,    0.0,   13.4,   0.00,   0.00, 1001.9,    0.3, -999.0
27-07-2023, 00:39:45,    187,    0.0,   13.4,   0.00,   0.00, 1001.8,    0.2, -999.0
27-07-2023, 00:39:54,    217,    0.4,   13.3,   0.00,   0.00, 1001.9,    0.3, -999.0
27-07-2023, 00:40:04,    206,    1.6,   13.4,   0.00,   0.00, 1001.9,    0.1, -999.0
27-07-2023, 00:40:15,    162,    1.2,   13.5,   0.00,   0.00, 1001.9,    0.4, -999.0
27-07-2023, 00:40:24,    201,    2.4,   13.5,   0.00,   0.00, 1001.9,    0.2, -999.0
27-07-2023, 00:40:34,    147,    1.1,   13.4,   0.00,   0.00, 1001.8,    0.3, -999.0
27-07-2023, 00:40:44,    228,    2.3,   13.5,   0.00,   0.00, 1001.9,    0.2, -999.0
27-07-2023, 00:40:54,    239,    0.8,   13.4,   0.00,   0.00, 1001.8,    0.2, -999.0
27-07-2023, 00:41:04,    188,    0.8,   13.4,   0.00,   0.00, 1001.9,    0.7, -999.0
27-07-2023, 00:41:14,    211,    1.0,   13.5,   0.00,   0.01, 1001.8,    0.3, -999.0
27-07-2023, 00:41:24,    190,    1.5,   13.4,   0.00,   0.00, 1001.9,    0.1, -999.0
27-07-2023, 00:41:34,    209,    0.9,   13.5,   0.00,   0.00, 1001.8,    0.1, -999.0
27-07-2023, 00:41:44,    186,    1.9,   13.4,   0.00,   0.00, 1001.9,    0.4, -999.0
27-07-2023, 00:41:54,    200,    2.6,   13.4,   0.00,   0.00, 1001.8,    0.1, -999.0
27-07-2023, 00:42:04,    201,    1.8,   13.5,   0.00,   0.00, 1001.8,    0.3, -999.0
27-07-2023, 00:42:14,    182,    2.6,   13.5,   0.00,   0.00, 1001.8,    0.2, -999.0
27-07-2023, 00:42:24,    191,    1.0,   13.5,   0.00,   0.00, 1001.8,    0.3, -999.0
27-07-2023, 00:42:34,    196,    1.0,   13.5,   0.00,   0.00, 1001.8,    0.6, -999.0
27-07-2023, 00:42:44,    203,    1.7,   13.5,   0.00,   0.00, 1001.8,    0.4, -999.0
27-07-2023, 00:42:54,    203,    0.0,   13.4,   0.00,   0.00, 1001.6,    0.2, -999.0
27-07-2023, 00:43:04,    203,    0.0,   13.3,   0.00,   0.00, 1001.6,    0.2, -999.0
27-07-2023, 00:43:14,    204,    0.1,   13.3,   0.00,   0.00, 1001.7,    0.4, -999.0
27-07-2023, 00:43:24,    198,    0.7,   13.4,   0.00,   0.00, 1001.8,    0.3, -999.0
27-07-2023, 00:43:34,    194,    1.5,   13.5,   0.00,   0.00, 1001.8,    0.3, -999.0
27-07-2023, 00:43:44,    199,    0.3,   13.5,   0.00,   0.00, 1001.7,    0.1, -999.0
27-07-2023, 00:43:54,    205,    0.9,   13.5,   0.00,   0.00, 1001.8,    0.3, -999.0
27-07-2023, 00:44:04,    197,    2.7,   13.5,   0.00,   0.00, 1001.8,    0.4, -999.0
27-07-2023, 00:44:14,    180,    1.3,   13.5,   0.00,   0.00, 1001.8,    0.1, -999.0
27-07-2023, 00:44:24,    187,    1.2,   13.6,   0.00,   0.00, 1001.8,    0.2, -999.0
27-07-2023, 00:44:34,    191,    0.8,   13.5,   0.00,   0.00, 1001.8,    0.3, -999.0
27-07-2023, 00:44:44,    150,    0.9,   13.6,   0.00,   0.00, 1001.8,    0.2, -999.0
27-07-2023, 00:44:54,    195,    1.7,   13.4,   0.00,   0.00, 1001.7,    0.5, -999.0
27-07-2023, 00:45:04,    194,    0.1,   13.5,   0.00,   0.01, 1001.7,    0.3, -999.0
27-07-2023, 00:45:14,    218,    1.7,   13.5,   0.00,   0.00, 1001.8,    0.3, -999.0
27-07-2023, 00:45:24,    216,    0.6,   13.5,   0.00,   0.00, 1001.8,    0.4, -999.0
27-07-2023, 00:45:34,    216,    0.0,   13.4,   0.00,   0.00, 1001.6,    0.3, -999.0
27-07-2023, 00:45:44,    216,    0.0,   13.4,   0.00,   0.00, 1001.6,    0.1, -999.0
27-07-2023, 00:45:53,    216,    0.0,   13.4,   0.00,   0.00, 1001.6,    0.0, -999.0
27-07-2023, 00:46:04,    216,    0.0,   13.4,   0.00,   0.00, 1001.6,    0.0, -999.0
27-07-2023, 00:46:14,    215,    0.0,   13.5,   0.00,   0.00, 1001.6,    0.4, -999.0
27-07-2023, 00:46:23,    269,    0.0,   13.4,   0.00,   0.00, 1001.6,    0.1, -999.0
27-07-2023, 00:46:33,    242,    1.2,   13.5,   0.00,   0.00, 1001.7,    0.3, -999.0
27-07-2023, 00:46:44,    217,    0.2,   13.5,   0.00,   0.00, 1001.7,    0.2, -999.0